Hourly Data Report for February 03, 2004

TORONTO CITY
ONTARIO

43°40'00.000" N
79°24'00.000" W
112.50 m
6158355
71508
XTO

Download Data

Hourly Data (February 2004)
Hourly Data Report for February 3, 2004
TIME
LST
Temp Definition
°C
Dew Point Definition
°C
Rel Hum Definition
%
Precip. Amount Definition
mm

Wind Dir Definition
10's deg

Wind Spd Definition
km/h
Visibility Definition
km
Stn Press Definition
kPa
Hmdx Definition


Wind Chill Definition


Weather Definition


00:00 1.1 -0.6 88   LegendMM LegendMM LegendMM 100.60     LegendNANA
01:00 1.3 -1.8 80   LegendMM LegendMM LegendMM 100.50     LegendNANA
02:00 1.0 -2.1 80   LegendMM LegendMM LegendMM 100.38     LegendNANA
03:00 1.2 -2.0 79   LegendMM LegendMM LegendMM 100.30     LegendNANA
04:00 1.5 -2.2 76   LegendMM LegendMM LegendMM 100.26     LegendNANA
05:00 0.6 -1.7 85   LegendMM LegendMM LegendMM 100.20     LegendNANA
06:00 0.7 -0.8 90   LegendMM LegendMM LegendMM 100.14     LegendNANA
07:00 0.7 -0.4 92   LegendMM LegendMM LegendMM 100.10     LegendNANA
08:00 0.6 0.2 97   LegendMM LegendMM LegendMM 100.02     LegendNANA
09:00 0.7 0.4 98   LegendMM LegendMM LegendMM 100.02     LegendNANA
10:00 1.3 1.0 98   LegendMM LegendMM LegendMM 99.96     LegendNANA
11:00 1.8 1.3 96   LegendMM LegendMM LegendMM 99.92     LegendNANA
12:00 2.1 1.3 94   LegendMM LegendMM LegendMM 99.84     LegendNANA
13:00 2.4 1.7 95   LegendMM LegendMM LegendMM 99.77     LegendNANA
14:00 2.1 1.4 95   LegendMM LegendMM LegendMM 99.67     LegendNANA
15:00 2.3 1.6 95   LegendMM LegendMM LegendMM 99.65     LegendNANA
16:00 2.1 1.5 96   LegendMM LegendMM LegendMM 99.65     LegendNANA
17:00 2.3 1.8 96   LegendMM LegendMM LegendMM 99.63     LegendNANA
18:00 2.2 1.9 98   LegendMM LegendMM LegendMM 99.65     LegendNANA
19:00 2.2 1.9 98   LegendMM LegendMM LegendMM 99.70     LegendNANA
20:00 2.6 2.3 98   LegendMM LegendMM LegendMM 99.72     LegendNANA
21:00 2.9 2.3 96   LegendMM LegendMM LegendMM 99.76     LegendNANA
22:00 2.6 1.7 94   LegendMM LegendMM LegendMM 99.84     LegendNANA
23:00 2.5 0.2 85   LegendMM LegendMM LegendMM 99.95     LegendNANA

Notes on Data Quality.

Legend

  • E = Estimated
  • M = Missing
  • NA = Not Available*
  • [empty] = Indicates an unobserved value
Date modified: